Regional Weather Roundup
Issued by NWS

Home | Current Version | Previous Version | Text Only | Print | Product List | Glossary Off
Versions: 1 2 3 4 5 6 7 8 9 10 11 12 13 14 15 16 17 18 19 20 21 22 23 24 25 26 27 28 29 30 31 32 33 34 35 36 37 38 39 40 41 42 43 44 45 46 47 48 49 50

000
ASUS45 KSLC 301110
RWRUT

UTAH REGIONAL WEATHER ROUNDUP
NATIONAL WEATHER SERVICE SALT LAKE CITY UT
500 AM MDT SAT MAY 30 2015

UTZ001>011-023>025-301200-

NORTHERN UTAH

CITY           SKY/WX    TMP DP  RH WIND       PRES   REMARKS
BRIGHAM CITY   CLEAR     51  45  81 CALM      30.12S
HILL AFB       CLEAR     55  38  54 E15       30.12F
LOGAN          CLEAR     47  44  90 CALM      30.13S
OGDEN          CLEAR     54  41  61 S8        30.10F
PROVO AIRPORT  CLEAR     54  43  66 S6        30.14S
SALT LAKE CITY PTCLDY    58  44  60 S7        30.10S
VERNAL         PTCLDY    49  39  68 W3        30.23S
WENDOVER       PTCLDY    57  46  67 CALM      30.08F
HEBER CITY     CLEAR     41  37  87 CALM      30.22S
WEST JORDAN    CLEAR     54  43  66 CALM      30.12F

$$

UTZ012>022-026-027-301200-

SOUTHERN/CENTRAL UTAH

CITY           SKY/WX    TMP DP  RH WIND       PRES   REMARKS
BLANDING       CLEAR     54  33  44 N9        30.29S
BRYCE CANYON   CLEAR     40  35  83 W8        30.32S WCI  34
CEDAR CITY     CLEAR     46  42  86 SW5       30.17S
DELTA          PTCLDY    54  42  63 NE7       30.13S
HANKSVILLE     CLEAR     55  34  44 N5        30.17R
MILFORD        CLEAR     50  45  83 SW6       30.14S
MOAB/CYNLANDS  CLEAR     58  38  47 SE10      30.14S
PRICE          CLEAR     51  37  58 NE8       30.22S
ST GEORGE      SUNNY     68  36  30 CALM      30.04S
KANAB          PTCLDY    55  39  54 NW16      30.19S

$$

REGIONAL REPORTS     COLORADO/ARIZONA

CITY           SKY/WX    TMP DP  RH WIND       PRES   REMARKS
CRAIG, CO      CLEAR     35  33  92 CALM      30.31R
GRAND JUNCTION CLEAR     51  41  68 SE5       30.21R
RIFLE          CLEAR     42  37  82 E3        30.28R
MONTROSE       CLEAR     47  37  68 SE8       30.28R
CORTEZ         CLEAR     39  33  79 E3        30.25R
PAGE, AZ       PTCLDY    66  43  43 W3        30.13S
GRAND CANYON   CLEAR     45  37  73 CALM      30.26S
KINGMAN        CLEAR     61  15  16 SE13      30.02S
FLAGSTAFF      CLEAR     40  35  83 CALM      30.29R

$$

REGIONAL REPORTS    NEVADA/IDAHO/WYOMING

CITY           SKY/WX    TMP DP  RH WIND       PRES   REMARKS
LAS VEGAS, NV  PTCLDY    76  28  17 W7        29.88R
ELY            MOCLDY    51  43  74 SE8       30.18S
ELKO           MOCLDY    58  45  62 E5        30.07F
POCATELLO, ID  CLEAR     49  47  93 NW7       30.11R
BURLEY         CLEAR     52  45  77 CALM      30.04S
EVANSTON, WY   CLEAR     44  37  76 SE5       30.26S
ROCK SPRINGS   CLEAR     43  38  82 S7        30.26F
KEMMERER       PTCLDY    41  36  81 N9        30.28S

$$



USA.gov is the U.S. government's official web portal to all federal, state and local government web resources and services.